This demonstration page uses our WeatherBlox Daily Observations layout. Learn more.

Left ArrowRight Arrow

41.86663, -103.66717

Hourly Observations for April 28, 2018

Temp ( °F °C ) Dew Point ( °F °C ) Humidity (%) Winds ( mph kmh ) Pressure ( in mb ) Visibility ( mi km ) Precip ( " mm )
12:53 am 00:53 Clear 43 6.1 35 1.7 74 74 E 6 9 30.01 1016 10 16 N/A
1:53 am 01:53 Clear 42 5.6 35 1.7 76 76 ESE 9 15 30.01 1016 10 16 N/A
2:53 am 02:53 Clear 40 4.4 34 1.1 79 79 E 9 15 30.00 1016 10 16 N/A
3:53 am 03:53 Clear 41 5 34 1.1 76 76 E 12 19 29.99 1016 10 16 N/A
4:53 am 04:53 Clear 40 4.4 33 0.6 77 77 E 14 22 29.98 1015 10 16 N/A
5:53 am 05:53 Clear 39 3.9 32 undefined 76 76 ESE 12 19 30.01 1016 10 16 N/A
6:53 am 06:53 Sunny 41 5 33 0.6 73 73 ESE 15 24 30.01 1016 10 16 N/A
7:53 am 07:53 Sunny 46 7.8 35 1.7 66 66 ESE 18 30 30.03 1017 10 16 N/A
8:53 am 08:53 Sunny 49 9.4 37 2.8 64 64 SE 21 33 30.01 1016 10 16 N/A
9:53 am 09:53 Sunny 56 13.3 37 2.8 49 49 SSE 21 33 29.99 1016 10 16 N/A
10:53 am 10:53 Sunny 61 16.1 38 3.3 43 43 SE 20 31 29.97 1015 10 16 N/A
11:53 am 11:53 Sunny 64 17.8 38 3.3 38 38 SE 21 33 29.93 1014 10 16 N/A
12:53 pm 12:53 Sunny 68 20 38 3.3 33 33 SE 22 35 29.90 1012 10 16 N/A
1:53 pm 13:53 Sunny 70 21.1 38 3.3 31 31 SE 22 35 29.87 1012 10 16 N/A
2:53 pm 14:53 Sunny 73 22.8 38 3.3 28 28 SSE 22 35 29.83 1010 10 16 N/A
3:53 pm 15:53 Sunny 75 23.9 39 3.9 27 27 SSE 23 37 29.80 1009 10 16 N/A
4:53 pm 16:53 Sunny 75 23.9 38 3.3 26 26 SSE 23 37 29.79 1009 10 16 N/A
5:53 pm 17:53 Sunny 74 23.3 39 3.9 28 28 SSE 21 33 29.78 1009 10 16 N/A
6:53 pm 18:53 Sunny 70 21.1 39 3.9 32 32 SE 17 28 29.78 1008 10 16 N/A
7:53 pm 19:53 Clear 65 18.3 39 3.9 39 39 ESE 16 26 29.78 1008 10 16 N/A
8:53 pm 20:53 Clear 62 16.7 39 3.9 43 43 ESE 16 26 29.79 1009 10 16 N/A
9:53 pm 21:53 Clear 58 14.4 39 3.9 50 50 ESE 13 20 29.80 1009 10 16 N/A
10:53 pm 22:53 Clear 54 12.2 39 3.9 57 57 E 9 15 29.80 1009 10 16 N/A
11:53 pm 23:53 Clear 52 11.1 39 3.9 61 61 E 12 19 29.80 1009 10 16 N/A

Powered by AerisWeather